Flag for U.S.A. Weather past 2 weeks in Juneau, Alaska, U.S.A.

Now
47 °F

Broken clouds.


Feels Like: 47 °F
Forecast: 39 / 48 °F
Wind: No wind

Location: Juneau International Airport


UV Index: 0 (Low)

Visibility: 10 mi


Pressure: 29.57 "Hg

Humidity: 66%

Dew point: 36 °F

Location of JuneauLocation

Historic Weather in Juneau

°F

Juneau temperature yesterday

Maximum temperature yesterday: 52 °F (at 3:53 PM)
Minimum temperature yesterday: 36 °F (at 5:53 AM)
Average temperature yesterday: 44 °F

Past Weeks' High & Low Weather Summary

 TemperatureHumidityPressure
High52 °F (Apr 15, 3:53 PM)97% (Apr 5, 7:53 AM)30.37 "Hg (Apr 5, 7:53 AM)
Low24 °F (Apr 12, 4:53 AM)34% (Apr 3, 3:53 PM)29.23 "Hg (Apr 7, 12:53 PM)
Average39 °F77%29.83 "Hg
* Reported Apr 1 7:53 PM — Apr 16 7:53 PM, Juneau, Weather by CustomWeather, © 2014

Note: Actual official high and low records may vary slightly from our data, if they occured in-between our weather recording intervals... More about our weather records

Advertising

Historic Weather Conditions — Data for Previous 24 hours

 ConditionsComfort  
Time TempWeatherWind HumidityBarometerVisibility
7:53 PM
Apr 16
47 °FBroken clouds.No wind66%29.57 "Hg10 mi
6:53 PM50 °FPartly sunny.7 mph54%29.59 "Hg10 mi
5:53 PM50 °FPartly sunny.7 mph57%29.63 "Hg10 mi
4:53 PM50 °FBroken clouds.9 mph57%29.67 "Hg10 mi
3:53 PM50 °FBroken clouds.10 mph61%29.69 "Hg10 mi
2:53 PM50 °FPartly sunny.10 mph59%29.71 "Hg10 mi
1:53 PM50 °FBroken clouds.13 mph61%29.75 "Hg10 mi
12:53 PM48 °FBroken clouds.13 mph68%29.78 "Hg10 mi
11:53 AM47 °FBroken clouds.13 mph71%29.80 "Hg10 mi
10:53 AM46 °FScattered clouds.13 mph79%29.82 "Hg10 mi
9:53 AM45 °FBroken clouds.8 mph80%29.84 "Hg10 mi
8:53 AM44 °FMore clouds than sun.No wind79%29.86 "Hg10 mi
7:53 AM41 °FBroken clouds.9 mph89%29.88 "Hg10 mi
6:53 AM40 °FBroken clouds.10 mph89%29.88 "Hg10 mi
5:53 AM40 °FMostly cloudy.5 mph89%29.89 "Hg10 mi
4:53 AM40 °FOvercast.No wind86%29.90 "Hg10 mi
3:53 AM41 °FPartly cloudy.5 mph86%29.91 "Hg10 mi
2:53 AM42 °FOvercast.7 mph85%29.92 "Hg10 mi
1:53 AM42 °FMostly cloudy.9 mph85%29.93 "Hg10 mi
12:53 AM43 °FOvercast.13 mph86%29.93 "Hg10 mi
11:53 PM
Apr 15
43 °FOvercast.10 mph86%29.93 "Hg10 mi
10:53 PM44 °FOvercast.10 mph79%29.93 "Hg10 mi
9:53 PM45 °FPartly cloudy.12 mph74%29.93 "Hg10 mi
8:53 PM46 °FPartly sunny.12 mph71%29.92 "Hg10 mi
Weather by CustomWeather, © 2014

See weather overview